Location: Carri�res
(48.9069°N, 2.1792°E)
Time: 23:57:26
(UTC+00:00)

X-37B - Pass Details

Date: 10 December 2021
Orbit: 334 x 337 km, 45.0° (Epoch: 11 January)

Event Time Altitude Azimuth Distance (km) Brightness Sun altitude
Rises 18:13:08 0° 250° (WSW) 2,102 5.8 -21.7°
Reaches altitude 10° 18:15:13 10° 241° (WSW) 1,266 4.2 -22.1°
Enters shadow 18:16:46 24° 218° (SW) 735 2.4 -22.3°
